Tracking 19572 objects as of 23-Feb-2019
HD Live streaming from Space Station
objects crossing your sky now

OPS 5268 (DMSP 5A F3)

Track OPS 5268 (DMSP 5A F3) now!
10-day predictions
OPS 5268 (DMSP 5A F3) is classified as:


NORAD ID: 4953
Int'l Code: 1971-012A
Perigee: 736.5 km
Apogee: 792.5 km
Inclination: 98.7 °
Period: 100.0 minutes
Semi major axis: 7135 km
RCS: 0.9997 m2 (medium)
Launch date: February 17, 1971
Source: United States (US)
Launch site: AIR FORCE WESTERN TEST RANGE (AFWTR)
aabbcc
Your satellite tracking list
Your tracking list is empty




NASA's NSSDC Master Catalog

Two Line Element Set (TLE):
1  4953U 71012A   19053.43238923 +.00000007 +00000-0 +16125-4 0  9990
2  4953 098.6511 223.9391 0039248 131.2631 229.1949 14.40334353514023
Source of the keplerian elements: AFSPC